<?xml version="1.0" encoding="UTF-8" standalone="no" ?>
<gpx xmlns="http://www.topografix.com/GPX/1/1" xmlns:xsi="http://www.w3.org/2001/XMLSchema-instance" xsi:schemaLocation="http://www.topografix.com/GPX/1/1 http://www.topografix.com/GPX/1/1/gpx.xsd" version="1.1" creator="VisuGPX - https://www.visugpx.com">
  <metadata>
    <name>Parcours VTT FFC Saillans</name>
  </metadata>
  <trk>
    <name><![CDATA[VTT N°13 rouge - Tour de Barry - 12km - déniv 531m - VAE Rouge ]]></name>
    <extensions>
      <line xmlns="http://www.topografix.com/GPX/gpx_style/0/2">
        <color>f6002e</color>
        <width>4</width>
      </line>
    </extensions>
    <trkseg>
      <trkpt lat="44.71062" lon="5.24998">
        <ele>433</ele>
        <time>2022-12-01T10:57:23Z</time>
      </trkpt>
      <trkpt lat="44.71068" lon="5.24992">
        <ele>434</ele>
        <time>2022-12-01T10:57:23Z</time>
      </trkpt>
      <trkpt lat="44.71079" lon="5.24986">
        <ele>435</ele>
        <time>2022-12-01T10:57:23Z</time>
      </trkpt>
      <trkpt lat="44.71089" lon="5.24984">
        <ele>435</ele>
        <time>2022-12-01T10:57:23Z</time>
      </trkpt>
      <trkpt lat="44.71279" lon="5.24987">
        <ele>438</ele>
        <time>2022-12-01T10:57:23Z</time>
      </trkpt>
      <trkpt lat="44.71286" lon="5.24977">
        <ele>439</ele>
        <time>2022-12-01T10:57:23Z</time>
      </trkpt>
      <trkpt lat="44.71296" lon="5.2494">
        <ele>441</ele>
        <time>2022-12-01T10:57:23Z</time>
      </trkpt>
      <trkpt lat="44.71303" lon="5.24936">
        <ele>442</ele>
        <time>2022-12-01T10:57:23Z</time>
      </trkpt>
      <trkpt lat="44.71311" lon="5.24938">
        <ele>443</ele>
        <time>2022-12-01T10:57:23Z</time>
      </trkpt>
      <trkpt lat="44.71368" lon="5.24999">
        <ele>444</ele>
        <time>2022-12-01T10:57:23Z</time>
      </trkpt>
      <trkpt lat="44.71461" lon="5.25162">
        <ele>447</ele>
        <time>2022-12-01T10:57:23Z</time>
      </trkpt>
      <trkpt lat="44.71503" lon="5.25199">
        <ele>450</ele>
        <time>2022-12-01T10:57:23Z</time>
      </trkpt>
      <trkpt lat="44.71571" lon="5.25238">
        <ele>454</ele>
        <time>2022-12-01T10:57:23Z</time>
      </trkpt>
      <trkpt lat="44.71669" lon="5.25211">
        <ele>454</ele>
        <time>2022-12-01T10:57:23Z</time>
      </trkpt>
      <trkpt lat="44.71707" lon="5.25218">
        <ele>453</ele>
        <time>2022-12-01T10:57:23Z</time>
      </trkpt>
      <trkpt lat="44.71735" lon="5.25236">
        <ele>453</ele>
        <time>2022-12-01T10:57:23Z</time>
      </trkpt>
      <trkpt lat="44.71745" lon="5.25232">
        <ele>452</ele>
        <time>2022-12-01T10:57:23Z</time>
      </trkpt>
      <trkpt lat="44.71748" lon="5.25219">
        <ele>453</ele>
        <time>2022-12-01T10:57:23Z</time>
      </trkpt>
      <trkpt lat="44.71758" lon="5.25205">
        <ele>454</ele>
        <time>2022-12-01T10:57:23Z</time>
      </trkpt>
      <trkpt lat="44.71766" lon="5.25212">
        <ele>454</ele>
        <time>2022-12-01T10:57:23Z</time>
      </trkpt>
      <trkpt lat="44.71778" lon="5.2523">
        <ele>454</ele>
        <time>2022-12-01T10:57:23Z</time>
      </trkpt>
      <trkpt lat="44.71792" lon="5.2524">
        <ele>455</ele>
        <time>2022-12-01T10:57:23Z</time>
      </trkpt>
      <trkpt lat="44.718" lon="5.2525">
        <ele>455</ele>
        <time>2022-12-01T10:57:23Z</time>
      </trkpt>
      <trkpt lat="44.71803" lon="5.25264">
        <ele>455</ele>
        <time>2022-12-01T10:57:23Z</time>
      </trkpt>
      <trkpt lat="44.71797" lon="5.25313">
        <ele>456</ele>
        <time>2022-12-01T10:57:23Z</time>
      </trkpt>
      <trkpt lat="44.71801" lon="5.25343">
        <ele>458</ele>
        <time>2022-12-01T10:57:23Z</time>
      </trkpt>
      <trkpt lat="44.71815" lon="5.25378">
        <ele>459</ele>
        <time>2022-12-01T10:57:23Z</time>
      </trkpt>
      <trkpt lat="44.71825" lon="5.25389">
        <ele>460</ele>
        <time>2022-12-01T10:57:23Z</time>
      </trkpt>
      <trkpt lat="44.71836" lon="5.25379">
        <ele>461</ele>
        <time>2022-12-01T10:57:23Z</time>
      </trkpt>
      <trkpt lat="44.71867" lon="5.25299">
        <ele>462</ele>
        <time>2022-12-01T10:57:23Z</time>
      </trkpt>
      <trkpt lat="44.71887" lon="5.25274">
        <ele>461</ele>
        <time>2022-12-01T10:57:23Z</time>
      </trkpt>
      <trkpt lat="44.7189" lon="5.25264">
        <ele>461</ele>
        <time>2022-12-01T10:57:23Z</time>
      </trkpt>
      <trkpt lat="44.71888" lon="5.25237">
        <ele>462</ele>
        <time>2022-12-01T10:57:23Z</time>
      </trkpt>
      <trkpt lat="44.71899" lon="5.25217">
        <ele>462</ele>
        <time>2022-12-01T10:57:23Z</time>
      </trkpt>
      <trkpt lat="44.71906" lon="5.25213">
        <ele>462</ele>
        <time>2022-12-01T10:57:23Z</time>
      </trkpt>
      <trkpt lat="44.7192" lon="5.25218">
        <ele>462</ele>
        <time>2022-12-01T10:57:23Z</time>
      </trkpt>
      <trkpt lat="44.71923" lon="5.25228">
        <ele>462</ele>
        <time>2022-12-01T10:57:23Z</time>
      </trkpt>
      <trkpt lat="44.71925" lon="5.25243">
        <ele>462</ele>
        <time>2022-12-01T10:57:23Z</time>
      </trkpt>
      <trkpt lat="44.71929" lon="5.25255">
        <ele>461</ele>
        <time>2022-12-01T10:57:23Z</time>
      </trkpt>
      <trkpt lat="44.71944" lon="5.25266">
        <ele>461</ele>
        <time>2022-12-01T10:57:23Z</time>
      </trkpt>
      <trkpt lat="44.71954" lon="5.25266">
        <ele>461</ele>
        <time>2022-12-01T10:57:23Z</time>
      </trkpt>
      <trkpt lat="44.71965" lon="5.25277">
        <ele>460</ele>
        <time>2022-12-01T10:57:23Z</time>
      </trkpt>
      <trkpt lat="44.72005" lon="5.25348">
        <ele>460</ele>
        <time>2022-12-01T10:57:23Z</time>
      </trkpt>
      <trkpt lat="44.72036" lon="5.25368">
        <ele>461</ele>
        <time>2022-12-01T10:57:23Z</time>
      </trkpt>
      <trkpt lat="44.72086" lon="5.25435">
        <ele>462</ele>
        <time>2022-12-01T10:57:23Z</time>
      </trkpt>
      <trkpt lat="44.72209" lon="5.25501">
        <ele>465</ele>
        <time>2022-12-01T10:57:23Z</time>
      </trkpt>
      <trkpt lat="44.72226" lon="5.25505">
        <ele>467</ele>
        <time>2022-12-01T10:57:23Z</time>
      </trkpt>
      <trkpt lat="44.7224" lon="5.25502">
        <ele>469</ele>
        <time>2022-12-01T10:57:23Z</time>
      </trkpt>
      <trkpt lat="44.72249" lon="5.25498">
        <ele>470</ele>
        <time>2022-12-01T10:57:23Z</time>
      </trkpt>
      <trkpt lat="44.72262" lon="5.25486">
        <ele>471</ele>
        <time>2022-12-01T10:57:23Z</time>
      </trkpt>
      <trkpt lat="44.7227" lon="5.25482">
        <ele>478</ele>
        <time>2022-12-01T10:57:23Z</time>
      </trkpt>
      <trkpt lat="44.72348" lon="5.25491">
        <ele>478</ele>
        <time>2022-12-01T10:57:23Z</time>
      </trkpt>
      <trkpt lat="44.72452" lon="5.25468">
        <ele>478</ele>
        <time>2022-12-01T10:57:23Z</time>
      </trkpt>
      <trkpt lat="44.72561" lon="5.2549">
        <ele>476</ele>
        <time>2022-12-01T10:57:23Z</time>
      </trkpt>
      <trkpt lat="44.7257" lon="5.25487">
        <ele>475</ele>
        <time>2022-12-01T10:57:23Z</time>
      </trkpt>
      <trkpt lat="44.72615" lon="5.25415">
        <ele>476</ele>
        <time>2022-12-01T10:57:23Z</time>
      </trkpt>
      <trkpt lat="44.72628" lon="5.25405">
        <ele>476</ele>
        <time>2022-12-01T10:57:23Z</time>
      </trkpt>
      <trkpt lat="44.72638" lon="5.25404">
        <ele>476</ele>
        <time>2022-12-01T10:57:23Z</time>
      </trkpt>
      <trkpt lat="44.7265" lon="5.25391">
        <ele>477</ele>
        <time>2022-12-01T10:57:23Z</time>
      </trkpt>
      <trkpt lat="44.72659" lon="5.25397">
        <ele>478</ele>
        <time>2022-12-01T10:57:23Z</time>
      </trkpt>
      <trkpt lat="44.72662" lon="5.25413">
        <ele>479</ele>
        <time>2022-12-01T10:57:23Z</time>
      </trkpt>
      <trkpt lat="44.72679" lon="5.25425">
        <ele>479</ele>
        <time>2022-12-01T10:57:23Z</time>
      </trkpt>
      <trkpt lat="44.72728" lon="5.25419">
        <ele>481</ele>
        <time>2022-12-01T10:57:23Z</time>
      </trkpt>
      <trkpt lat="44.72755" lon="5.25406">
        <ele>483</ele>
        <time>2022-12-01T10:57:23Z</time>
      </trkpt>
      <trkpt lat="44.72796" lon="5.25363">
        <ele>488</ele>
        <time>2022-12-01T10:57:23Z</time>
      </trkpt>
      <trkpt lat="44.72758" lon="5.25367">
        <ele>491</ele>
        <time>2022-12-01T10:57:23Z</time>
      </trkpt>
      <trkpt lat="44.72746" lon="5.25353">
        <ele>494</ele>
        <time>2022-12-01T10:57:23Z</time>
      </trkpt>
      <trkpt lat="44.72737" lon="5.2533">
        <ele>497</ele>
        <time>2022-12-01T10:57:23Z</time>
      </trkpt>
      <trkpt lat="44.72711" lon="5.25287">
        <ele>500</ele>
        <time>2022-12-01T10:57:23Z</time>
      </trkpt>
      <trkpt lat="44.72708" lon="5.25229">
        <ele>503</ele>
        <time>2022-12-01T10:57:23Z</time>
      </trkpt>
      <trkpt lat="44.72715" lon="5.25192">
        <ele>508</ele>
        <time>2022-12-01T10:57:23Z</time>
      </trkpt>
      <trkpt lat="44.72724" lon="5.25188">
        <ele>511</ele>
        <time>2022-12-01T10:57:23Z</time>
      </trkpt>
      <trkpt lat="44.72731" lon="5.25194">
        <ele>514</ele>
        <time>2022-12-01T10:57:23Z</time>
      </trkpt>
      <trkpt lat="44.72741" lon="5.25216">
        <ele>516</ele>
        <time>2022-12-01T10:57:23Z</time>
      </trkpt>
      <trkpt lat="44.72758" lon="5.25228">
        <ele>519</ele>
        <time>2022-12-01T10:57:23Z</time>
      </trkpt>
      <trkpt lat="44.72813" lon="5.25245">
        <ele>523</ele>
        <time>2022-12-01T10:57:23Z</time>
      </trkpt>
      <trkpt lat="44.72827" lon="5.25241">
        <ele>527</ele>
        <time>2022-12-01T10:57:23Z</time>
      </trkpt>
      <trkpt lat="44.72834" lon="5.25246">
        <ele>530</ele>
        <time>2022-12-01T10:57:23Z</time>
      </trkpt>
      <trkpt lat="44.72852" lon="5.25274">
        <ele>532</ele>
        <time>2022-12-01T10:57:23Z</time>
      </trkpt>
      <trkpt lat="44.72893" lon="5.25293">
        <ele>535</ele>
        <time>2022-12-01T10:57:23Z</time>
      </trkpt>
      <trkpt lat="44.72901" lon="5.2529">
        <ele>538</ele>
        <time>2022-12-01T10:57:23Z</time>
      </trkpt>
      <trkpt lat="44.72882" lon="5.25255">
        <ele>541</ele>
        <time>2022-12-01T10:57:23Z</time>
      </trkpt>
      <trkpt lat="44.72859" lon="5.25173">
        <ele>546</ele>
        <time>2022-12-01T10:57:23Z</time>
      </trkpt>
      <trkpt lat="44.72849" lon="5.25155">
        <ele>550</ele>
        <time>2022-12-01T10:57:23Z</time>
      </trkpt>
      <trkpt lat="44.72834" lon="5.25108">
        <ele>555</ele>
        <time>2022-12-01T10:57:23Z</time>
      </trkpt>
      <trkpt lat="44.72816" lon="5.25074">
        <ele>560</ele>
        <time>2022-12-01T10:57:23Z</time>
      </trkpt>
      <trkpt lat="44.72813" lon="5.25062">
        <ele>563</ele>
        <time>2022-12-01T10:57:23Z</time>
      </trkpt>
      <trkpt lat="44.72817" lon="5.25052">
        <ele>565</ele>
        <time>2022-12-01T10:57:23Z</time>
      </trkpt>
      <trkpt lat="44.72831" lon="5.25058">
        <ele>568</ele>
        <time>2022-12-01T10:57:23Z</time>
      </trkpt>
      <trkpt lat="44.72928" lon="5.25083">
        <ele>577</ele>
        <time>2022-12-01T10:57:23Z</time>
      </trkpt>
      <trkpt lat="44.73097" lon="5.25226">
        <ele>597</ele>
        <time>2022-12-01T10:57:23Z</time>
      </trkpt>
      <trkpt lat="44.73105" lon="5.25238">
        <ele>608</ele>
        <time>2022-12-01T10:57:23Z</time>
      </trkpt>
      <trkpt lat="44.73138" lon="5.2526">
        <ele>616</ele>
        <time>2022-12-01T10:57:23Z</time>
      </trkpt>
      <trkpt lat="44.73203" lon="5.2527">
        <ele>625</ele>
        <time>2022-12-01T10:57:23Z</time>
      </trkpt>
      <trkpt lat="44.73171" lon="5.2524">
        <ele>632</ele>
        <time>2022-12-01T10:57:23Z</time>
      </trkpt>
      <trkpt lat="44.73159" lon="5.25222">
        <ele>638</ele>
        <time>2022-12-01T10:57:23Z</time>
      </trkpt>
      <trkpt lat="44.73148" lon="5.25131">
        <ele>646</ele>
        <time>2022-12-01T10:57:23Z</time>
      </trkpt>
      <trkpt lat="44.73072" lon="5.249">
        <ele>664</ele>
        <time>2022-12-01T10:57:23Z</time>
      </trkpt>
      <trkpt lat="44.72932" lon="5.24723">
        <ele>684</ele>
        <time>2022-12-01T10:57:23Z</time>
      </trkpt>
      <trkpt lat="44.72927" lon="5.24711">
        <ele>693</ele>
        <time>2022-12-01T10:57:23Z</time>
      </trkpt>
      <trkpt lat="44.72937" lon="5.2471">
        <ele>718</ele>
        <time>2022-12-01T10:57:23Z</time>
      </trkpt>
      <trkpt lat="44.72969" lon="5.24732">
        <ele>719</ele>
        <time>2022-12-01T10:57:23Z</time>
      </trkpt>
      <trkpt lat="44.73129" lon="5.24781">
        <ele>734</ele>
        <time>2022-12-01T10:57:23Z</time>
      </trkpt>
      <trkpt lat="44.73157" lon="5.24804">
        <ele>743</ele>
        <time>2022-12-01T10:57:23Z</time>
      </trkpt>
      <trkpt lat="44.732" lon="5.24889">
        <ele>749</ele>
        <time>2022-12-01T10:57:23Z</time>
      </trkpt>
      <trkpt lat="44.73319" lon="5.25031">
        <ele>764</ele>
        <time>2022-12-01T10:57:23Z</time>
      </trkpt>
      <trkpt lat="44.73326" lon="5.25055">
        <ele>772</ele>
        <time>2022-12-01T10:57:23Z</time>
      </trkpt>
      <trkpt lat="44.73367" lon="5.25082">
        <ele>778</ele>
        <time>2022-12-01T10:57:23Z</time>
      </trkpt>
      <trkpt lat="44.73387" lon="5.25084">
        <ele>783</ele>
        <time>2022-12-01T10:57:23Z</time>
      </trkpt>
      <trkpt lat="44.73429" lon="5.25102">
        <ele>786</ele>
        <time>2022-12-01T10:57:23Z</time>
      </trkpt>
      <trkpt lat="44.73489" lon="5.25082">
        <ele>792</ele>
        <time>2022-12-01T10:57:23Z</time>
      </trkpt>
      <trkpt lat="44.73515" lon="5.25059">
        <ele>798</ele>
        <time>2022-12-01T10:57:23Z</time>
      </trkpt>
      <trkpt lat="44.73535" lon="5.25051">
        <ele>803</ele>
        <time>2022-12-01T10:57:23Z</time>
      </trkpt>
      <trkpt lat="44.7354" lon="5.25042">
        <ele>807</ele>
        <time>2022-12-01T10:57:23Z</time>
      </trkpt>
      <trkpt lat="44.73543" lon="5.25017">
        <ele>809</ele>
        <time>2022-12-01T10:57:23Z</time>
      </trkpt>
      <trkpt lat="44.73498" lon="5.25015">
        <ele>813</ele>
        <time>2022-12-01T10:57:23Z</time>
      </trkpt>
      <trkpt lat="44.73466" lon="5.25002">
        <ele>817</ele>
        <time>2022-12-01T10:57:23Z</time>
      </trkpt>
      <trkpt lat="44.73387" lon="5.24903">
        <ele>823</ele>
        <time>2022-12-01T10:57:23Z</time>
      </trkpt>
      <trkpt lat="44.73386" lon="5.24888">
        <ele>827</ele>
        <time>2022-12-01T10:57:23Z</time>
      </trkpt>
      <trkpt lat="44.73399" lon="5.24689">
        <ele>835</ele>
        <time>2022-12-01T10:57:23Z</time>
      </trkpt>
      <trkpt lat="44.73396" lon="5.24669">
        <ele>839</ele>
        <time>2022-12-01T10:57:23Z</time>
      </trkpt>
      <trkpt lat="44.73393" lon="5.24656">
        <ele>841</ele>
        <time>2022-12-01T10:57:23Z</time>
      </trkpt>
      <trkpt lat="44.73372" lon="5.24624">
        <ele>844</ele>
        <time>2022-12-01T10:57:23Z</time>
      </trkpt>
      <trkpt lat="44.73368" lon="5.24611">
        <ele>846</ele>
        <time>2022-12-01T10:57:23Z</time>
      </trkpt>
      <trkpt lat="44.7335" lon="5.24584">
        <ele>848</ele>
        <time>2022-12-01T10:57:23Z</time>
      </trkpt>
      <trkpt lat="44.73336" lon="5.24541">
        <ele>851</ele>
        <time>2022-12-01T10:57:23Z</time>
      </trkpt>
      <trkpt lat="44.73334" lon="5.2452">
        <ele>854</ele>
        <time>2022-12-01T10:57:23Z</time>
      </trkpt>
      <trkpt lat="44.73353" lon="5.2444">
        <ele>855</ele>
        <time>2022-12-01T10:57:23Z</time>
      </trkpt>
      <trkpt lat="44.7335" lon="5.2443">
        <ele>856</ele>
        <time>2022-12-01T10:57:23Z</time>
      </trkpt>
      <trkpt lat="44.73344" lon="5.24423">
        <ele>857</ele>
        <time>2022-12-01T10:57:23Z</time>
      </trkpt>
      <trkpt lat="44.73335" lon="5.24422">
        <ele>859</ele>
        <time>2022-12-01T10:57:23Z</time>
      </trkpt>
      <trkpt lat="44.73332" lon="5.24432">
        <ele>860</ele>
        <time>2022-12-01T10:57:23Z</time>
      </trkpt>
      <trkpt lat="44.73331" lon="5.24456">
        <ele>862</ele>
        <time>2022-12-01T10:57:23Z</time>
      </trkpt>
      <trkpt lat="44.73325" lon="5.24472">
        <ele>863</ele>
        <time>2022-12-01T10:57:23Z</time>
      </trkpt>
      <trkpt lat="44.73318" lon="5.24479">
        <ele>865</ele>
        <time>2022-12-01T10:57:23Z</time>
      </trkpt>
      <trkpt lat="44.7331" lon="5.24478">
        <ele>867</ele>
        <time>2022-12-01T10:57:23Z</time>
      </trkpt>
      <trkpt lat="44.73305" lon="5.2445">
        <ele>869</ele>
        <time>2022-12-01T10:57:23Z</time>
      </trkpt>
      <trkpt lat="44.73233" lon="5.24344">
        <ele>876</ele>
        <time>2022-12-01T10:57:23Z</time>
      </trkpt>
      <trkpt lat="44.73229" lon="5.24356">
        <ele>881</ele>
        <time>2022-12-01T10:57:23Z</time>
      </trkpt>
      <trkpt lat="44.73248" lon="5.24443">
        <ele>886</ele>
        <time>2022-12-01T10:57:23Z</time>
      </trkpt>
      <trkpt lat="44.73249" lon="5.24466">
        <ele>889</ele>
        <time>2022-12-01T10:57:23Z</time>
      </trkpt>
      <trkpt lat="44.73242" lon="5.24505">
        <ele>893</ele>
        <time>2022-12-01T10:57:23Z</time>
      </trkpt>
      <trkpt lat="44.73234" lon="5.24516">
        <ele>895</ele>
        <time>2022-12-01T10:57:23Z</time>
      </trkpt>
      <trkpt lat="44.73225" lon="5.24516">
        <ele>897</ele>
        <time>2022-12-01T10:57:23Z</time>
      </trkpt>
      <trkpt lat="44.73183" lon="5.24448">
        <ele>901</ele>
        <time>2022-12-01T10:57:23Z</time>
      </trkpt>
      <trkpt lat="44.73108" lon="5.24381">
        <ele>910</ele>
        <time>2022-12-01T10:57:23Z</time>
      </trkpt>
      <trkpt lat="44.73102" lon="5.24371">
        <ele>915</ele>
        <time>2022-12-01T10:57:23Z</time>
      </trkpt>
      <trkpt lat="44.73096" lon="5.24355">
        <ele>919</ele>
        <time>2022-12-01T10:57:23Z</time>
      </trkpt>
      <trkpt lat="44.73088" lon="5.24342">
        <ele>923</ele>
        <time>2022-12-01T10:57:23Z</time>
      </trkpt>
      <trkpt lat="44.73081" lon="5.24335">
        <ele>926</ele>
        <time>2022-12-01T10:57:23Z</time>
      </trkpt>
      <trkpt lat="44.73018" lon="5.24309">
        <ele>947</ele>
        <time>2022-12-01T10:57:23Z</time>
      </trkpt>
      <trkpt lat="44.7299" lon="5.24283">
        <ele>947</ele>
        <time>2022-12-01T10:57:23Z</time>
      </trkpt>
      <trkpt lat="44.72978" lon="5.24261">
        <ele>947</ele>
        <time>2022-12-01T10:57:23Z</time>
      </trkpt>
      <trkpt lat="44.72971" lon="5.24229">
        <ele>948</ele>
        <time>2022-12-01T10:57:23Z</time>
      </trkpt>
      <trkpt lat="44.72971" lon="5.24201">
        <ele>949</ele>
        <time>2022-12-01T10:57:23Z</time>
      </trkpt>
      <trkpt lat="44.72993" lon="5.24113">
        <ele>951</ele>
        <time>2022-12-01T10:57:23Z</time>
      </trkpt>
      <trkpt lat="44.7299" lon="5.24098">
        <ele>953</ele>
        <time>2022-12-01T10:57:23Z</time>
      </trkpt>
      <trkpt lat="44.72984" lon="5.24084">
        <ele>955</ele>
        <time>2022-12-01T10:57:23Z</time>
      </trkpt>
      <trkpt lat="44.72983" lon="5.24068">
        <ele>956</ele>
        <time>2022-12-01T10:57:23Z</time>
      </trkpt>
      <trkpt lat="44.7298" lon="5.24056">
        <ele>958</ele>
        <time>2022-12-01T10:57:23Z</time>
      </trkpt>
      <trkpt lat="44.72973" lon="5.24048">
        <ele>959</ele>
        <time>2022-12-01T10:57:23Z</time>
      </trkpt>
      <trkpt lat="44.72902" lon="5.24013">
        <ele>960</ele>
        <time>2022-12-01T10:57:23Z</time>
      </trkpt>
      <trkpt lat="44.7289" lon="5.2399">
        <ele>961</ele>
        <time>2022-12-01T10:57:23Z</time>
      </trkpt>
      <trkpt lat="44.72879" lon="5.2398">
        <ele>963</ele>
        <time>2022-12-01T10:57:23Z</time>
      </trkpt>
      <trkpt lat="44.7287" lon="5.23976">
        <ele>964</ele>
        <time>2022-12-01T10:57:23Z</time>
      </trkpt>
      <trkpt lat="44.72847" lon="5.23979">
        <ele>964</ele>
        <time>2022-12-01T10:57:23Z</time>
      </trkpt>
      <trkpt lat="44.7284" lon="5.23976">
        <ele>964</ele>
        <time>2022-12-01T10:57:23Z</time>
      </trkpt>
      <trkpt lat="44.72825" lon="5.23976">
        <ele>963</ele>
        <time>2022-12-01T10:57:23Z</time>
      </trkpt>
      <trkpt lat="44.72815" lon="5.23972">
        <ele>963</ele>
        <time>2022-12-01T10:57:23Z</time>
      </trkpt>
      <trkpt lat="44.72754" lon="5.23919">
        <ele>965</ele>
        <time>2022-12-01T10:57:23Z</time>
      </trkpt>
      <trkpt lat="44.72728" lon="5.23908">
        <ele>966</ele>
        <time>2022-12-01T10:57:23Z</time>
      </trkpt>
      <trkpt lat="44.72719" lon="5.23912">
        <ele>966</ele>
        <time>2022-12-01T10:57:23Z</time>
      </trkpt>
      <trkpt lat="44.72712" lon="5.23911">
        <ele>966</ele>
        <time>2022-12-01T10:57:23Z</time>
      </trkpt>
      <trkpt lat="44.72679" lon="5.23897">
        <ele>967</ele>
        <time>2022-12-01T10:57:23Z</time>
      </trkpt>
      <trkpt lat="44.7265" lon="5.23894">
        <ele>967</ele>
        <time>2022-12-01T10:57:23Z</time>
      </trkpt>
      <trkpt lat="44.72651" lon="5.23883">
        <ele>967</ele>
        <time>2022-12-01T10:57:23Z</time>
      </trkpt>
      <trkpt lat="44.7268" lon="5.2381">
        <ele>967</ele>
        <time>2022-12-01T10:57:23Z</time>
      </trkpt>
      <trkpt lat="44.72675" lon="5.23784">
        <ele>966</ele>
        <time>2022-12-01T10:57:23Z</time>
      </trkpt>
      <trkpt lat="44.72679" lon="5.23767">
        <ele>964</ele>
        <time>2022-12-01T10:57:23Z</time>
      </trkpt>
      <trkpt lat="44.72818" lon="5.23516">
        <ele>957</ele>
        <time>2022-12-01T10:57:23Z</time>
      </trkpt>
      <trkpt lat="44.72822" lon="5.235">
        <ele>954</ele>
        <time>2022-12-01T10:57:23Z</time>
      </trkpt>
      <trkpt lat="44.72821" lon="5.23487">
        <ele>952</ele>
        <time>2022-12-01T10:57:23Z</time>
      </trkpt>
      <trkpt lat="44.72813" lon="5.23484">
        <ele>950</ele>
        <time>2022-12-01T10:57:23Z</time>
      </trkpt>
      <trkpt lat="44.72788" lon="5.23434">
        <ele>948</ele>
        <time>2022-12-01T10:57:23Z</time>
      </trkpt>
      <trkpt lat="44.72621" lon="5.23234">
        <ele>935</ele>
        <time>2022-12-01T10:57:23Z</time>
      </trkpt>
      <trkpt lat="44.72519" lon="5.23158">
        <ele>921</ele>
        <time>2022-12-01T10:57:23Z</time>
      </trkpt>
      <trkpt lat="44.726" lon="5.23291">
        <ele>907</ele>
        <time>2022-12-01T10:57:23Z</time>
      </trkpt>
      <trkpt lat="44.72619" lon="5.23342">
        <ele>897</ele>
        <time>2022-12-01T10:57:23Z</time>
      </trkpt>
      <trkpt lat="44.72612" lon="5.23348">
        <ele>890</ele>
        <time>2022-12-01T10:57:23Z</time>
      </trkpt>
      <trkpt lat="44.72598" lon="5.23339">
        <ele>885</ele>
        <time>2022-12-01T10:57:23Z</time>
      </trkpt>
      <trkpt lat="44.72516" lon="5.23255">
        <ele>877</ele>
        <time>2022-12-01T10:57:23Z</time>
      </trkpt>
      <trkpt lat="44.72473" lon="5.23228">
        <ele>871</ele>
        <time>2022-12-01T10:57:23Z</time>
      </trkpt>
      <trkpt lat="44.72475" lon="5.23242">
        <ele>867</ele>
        <time>2022-12-01T10:57:23Z</time>
      </trkpt>
      <trkpt lat="44.72516" lon="5.23296">
        <ele>861</ele>
        <time>2022-12-01T10:57:23Z</time>
      </trkpt>
      <trkpt lat="44.7257" lon="5.23403">
        <ele>854</ele>
        <time>2022-12-01T10:57:23Z</time>
      </trkpt>
      <trkpt lat="44.72572" lon="5.23413">
        <ele>849</ele>
        <time>2022-12-01T10:57:23Z</time>
      </trkpt>
      <trkpt lat="44.72435" lon="5.23314">
        <ele>837</ele>
        <time>2022-12-01T10:57:23Z</time>
      </trkpt>
      <trkpt lat="44.72426" lon="5.23313">
        <ele>831</ele>
        <time>2022-12-01T10:57:23Z</time>
      </trkpt>
      <trkpt lat="44.72417" lon="5.23316">
        <ele>827</ele>
        <time>2022-12-01T10:57:23Z</time>
      </trkpt>
      <trkpt lat="44.7219" lon="5.23332">
        <ele>809</ele>
        <time>2022-12-01T10:57:23Z</time>
      </trkpt>
      <trkpt lat="44.72379" lon="5.23448">
        <ele>757</ele>
        <time>2022-12-01T10:57:23Z</time>
      </trkpt>
      <trkpt lat="44.72384" lon="5.23456">
        <ele>757</ele>
        <time>2022-12-01T10:57:23Z</time>
      </trkpt>
      <trkpt lat="44.7225" lon="5.2346">
        <ele>749</ele>
        <time>2022-12-01T10:57:23Z</time>
      </trkpt>
      <trkpt lat="44.72123" lon="5.23488">
        <ele>737</ele>
        <time>2022-12-01T10:57:23Z</time>
      </trkpt>
      <trkpt lat="44.72127" lon="5.23502">
        <ele>730</ele>
        <time>2022-12-01T10:57:23Z</time>
      </trkpt>
      <trkpt lat="44.72148" lon="5.23519">
        <ele>725</ele>
        <time>2022-12-01T10:57:23Z</time>
      </trkpt>
      <trkpt lat="44.72237" lon="5.23551">
        <ele>719</ele>
        <time>2022-12-01T10:57:23Z</time>
      </trkpt>
      <trkpt lat="44.72234" lon="5.23569">
        <ele>716</ele>
        <time>2022-12-01T10:57:23Z</time>
      </trkpt>
      <trkpt lat="44.72182" lon="5.23607">
        <ele>710</ele>
        <time>2022-12-01T10:57:23Z</time>
      </trkpt>
      <trkpt lat="44.72045" lon="5.23775">
        <ele>695</ele>
        <time>2022-12-01T10:57:23Z</time>
      </trkpt>
      <trkpt lat="44.72045" lon="5.23763">
        <ele>687</ele>
        <time>2022-12-01T10:57:23Z</time>
      </trkpt>
      <trkpt lat="44.72052" lon="5.23753">
        <ele>681</ele>
        <time>2022-12-01T10:57:23Z</time>
      </trkpt>
      <trkpt lat="44.72057" lon="5.23742">
        <ele>678</ele>
        <time>2022-12-01T10:57:23Z</time>
      </trkpt>
      <trkpt lat="44.72061" lon="5.2372">
        <ele>674</ele>
        <time>2022-12-01T10:57:23Z</time>
      </trkpt>
      <trkpt lat="44.7206" lon="5.23708">
        <ele>671</ele>
        <time>2022-12-01T10:57:23Z</time>
      </trkpt>
      <trkpt lat="44.72052" lon="5.23699">
        <ele>668</ele>
        <time>2022-12-01T10:57:23Z</time>
      </trkpt>
      <trkpt lat="44.72042" lon="5.237">
        <ele>666</ele>
        <time>2022-12-01T10:57:23Z</time>
      </trkpt>
      <trkpt lat="44.72016" lon="5.23743">
        <ele>663</ele>
        <time>2022-12-01T10:57:23Z</time>
      </trkpt>
      <trkpt lat="44.72003" lon="5.23751">
        <ele>660</ele>
        <time>2022-12-01T10:57:23Z</time>
      </trkpt>
      <trkpt lat="44.71967" lon="5.23753">
        <ele>656</ele>
        <time>2022-12-01T10:57:23Z</time>
      </trkpt>
      <trkpt lat="44.71948" lon="5.23763">
        <ele>653</ele>
        <time>2022-12-01T10:57:23Z</time>
      </trkpt>
      <trkpt lat="44.71889" lon="5.23772">
        <ele>646</ele>
        <time>2022-12-01T10:57:23Z</time>
      </trkpt>
      <trkpt lat="44.71783" lon="5.23833">
        <ele>635</ele>
        <time>2022-12-01T10:57:23Z</time>
      </trkpt>
      <trkpt lat="44.71739" lon="5.23882">
        <ele>626</ele>
        <time>2022-12-01T10:57:23Z</time>
      </trkpt>
      <trkpt lat="44.71737" lon="5.23871">
        <ele>620</ele>
        <time>2022-12-01T10:57:23Z</time>
      </trkpt>
      <trkpt lat="44.71793" lon="5.23758">
        <ele>611</ele>
        <time>2022-12-01T10:57:23Z</time>
      </trkpt>
      <trkpt lat="44.71785" lon="5.23757">
        <ele>606</ele>
        <time>2022-12-01T10:57:23Z</time>
      </trkpt>
      <trkpt lat="44.71739" lon="5.23815">
        <ele>599</ele>
        <time>2022-12-01T10:57:23Z</time>
      </trkpt>
      <trkpt lat="44.71702" lon="5.23833">
        <ele>591</ele>
        <time>2022-12-01T10:57:23Z</time>
      </trkpt>
      <trkpt lat="44.71669" lon="5.23863">
        <ele>582</ele>
        <time>2022-12-01T10:57:23Z</time>
      </trkpt>
      <trkpt lat="44.71655" lon="5.23922">
        <ele>575</ele>
        <time>2022-12-01T10:57:23Z</time>
      </trkpt>
      <trkpt lat="44.716" lon="5.24027">
        <ele>563</ele>
        <time>2022-12-01T10:57:23Z</time>
      </trkpt>
      <trkpt lat="44.71598" lon="5.24039">
        <ele>556</ele>
        <time>2022-12-01T10:57:23Z</time>
      </trkpt>
      <trkpt lat="44.7159" lon="5.24051">
        <ele>551</ele>
        <time>2022-12-01T10:57:23Z</time>
      </trkpt>
      <trkpt lat="44.71582" lon="5.24053">
        <ele>547</ele>
        <time>2022-12-01T10:57:23Z</time>
      </trkpt>
      <trkpt lat="44.71574" lon="5.24058">
        <ele>543</ele>
        <time>2022-12-01T10:57:23Z</time>
      </trkpt>
      <trkpt lat="44.71566" lon="5.24075">
        <ele>540</ele>
        <time>2022-12-01T10:57:23Z</time>
      </trkpt>
      <trkpt lat="44.71563" lon="5.2409">
        <ele>537</ele>
        <time>2022-12-01T10:57:23Z</time>
      </trkpt>
      <trkpt lat="44.71564" lon="5.241">
        <ele>535</ele>
        <time>2022-12-01T10:57:23Z</time>
      </trkpt>
      <trkpt lat="44.71564" lon="5.24113">
        <ele>533</ele>
        <time>2022-12-01T10:57:23Z</time>
      </trkpt>
      <trkpt lat="44.71559" lon="5.24123">
        <ele>532</ele>
        <time>2022-12-01T10:57:23Z</time>
      </trkpt>
      <trkpt lat="44.71566" lon="5.24156">
        <ele>532</ele>
        <time>2022-12-01T10:57:23Z</time>
      </trkpt>
      <trkpt lat="44.71547" lon="5.24199">
        <ele>531</ele>
        <time>2022-12-01T10:57:23Z</time>
      </trkpt>
      <trkpt lat="44.71538" lon="5.24263">
        <ele>531</ele>
        <time>2022-12-01T10:57:23Z</time>
      </trkpt>
      <trkpt lat="44.71525" lon="5.24278">
        <ele>531</ele>
        <time>2022-12-01T10:57:23Z</time>
      </trkpt>
      <trkpt lat="44.7152" lon="5.24291">
        <ele>531</ele>
        <time>2022-12-01T10:57:23Z</time>
      </trkpt>
      <trkpt lat="44.71511" lon="5.24337">
        <ele>531</ele>
        <time>2022-12-01T10:57:23Z</time>
      </trkpt>
      <trkpt lat="44.71513" lon="5.24364">
        <ele>532</ele>
        <time>2022-12-01T10:57:23Z</time>
      </trkpt>
      <trkpt lat="44.71509" lon="5.24396">
        <ele>534</ele>
        <time>2022-12-01T10:57:23Z</time>
      </trkpt>
      <trkpt lat="44.71505" lon="5.24408">
        <ele>534</ele>
        <time>2022-12-01T10:57:23Z</time>
      </trkpt>
      <trkpt lat="44.71462" lon="5.24469">
        <ele>524</ele>
        <time>2022-12-01T10:57:23Z</time>
      </trkpt>
      <trkpt lat="44.71429" lon="5.24494">
        <ele>522</ele>
        <time>2022-12-01T10:57:23Z</time>
      </trkpt>
      <trkpt lat="44.71426" lon="5.24503">
        <ele>521</ele>
        <time>2022-12-01T10:57:23Z</time>
      </trkpt>
      <trkpt lat="44.71427" lon="5.24518">
        <ele>520</ele>
        <time>2022-12-01T10:57:23Z</time>
      </trkpt>
      <trkpt lat="44.71421" lon="5.2453">
        <ele>519</ele>
        <time>2022-12-01T10:57:23Z</time>
      </trkpt>
      <trkpt lat="44.71414" lon="5.24535">
        <ele>517</ele>
        <time>2022-12-01T10:57:23Z</time>
      </trkpt>
      <trkpt lat="44.71404" lon="5.24537">
        <ele>516</ele>
        <time>2022-12-01T10:57:23Z</time>
      </trkpt>
      <trkpt lat="44.71392" lon="5.2453">
        <ele>514</ele>
        <time>2022-12-01T10:57:23Z</time>
      </trkpt>
      <trkpt lat="44.71371" lon="5.2451">
        <ele>512</ele>
        <time>2022-12-01T10:57:23Z</time>
      </trkpt>
      <trkpt lat="44.71347" lon="5.24505">
        <ele>509</ele>
        <time>2022-12-01T10:57:23Z</time>
      </trkpt>
      <trkpt lat="44.71325" lon="5.24513">
        <ele>506</ele>
        <time>2022-12-01T10:57:23Z</time>
      </trkpt>
      <trkpt lat="44.71316" lon="5.24513">
        <ele>504</ele>
        <time>2022-12-01T10:57:23Z</time>
      </trkpt>
      <trkpt lat="44.71296" lon="5.24505">
        <ele>502</ele>
        <time>2022-12-01T10:57:23Z</time>
      </trkpt>
      <trkpt lat="44.71283" lon="5.24495">
        <ele>499</ele>
        <time>2022-12-01T10:57:23Z</time>
      </trkpt>
      <trkpt lat="44.71275" lon="5.24482">
        <ele>497</ele>
        <time>2022-12-01T10:57:23Z</time>
      </trkpt>
      <trkpt lat="44.71259" lon="5.24481">
        <ele>495</ele>
        <time>2022-12-01T10:57:23Z</time>
      </trkpt>
      <trkpt lat="44.71259" lon="5.24512">
        <ele>493</ele>
        <time>2022-12-01T10:57:23Z</time>
      </trkpt>
      <trkpt lat="44.7131" lon="5.24641">
        <ele>490</ele>
        <time>2022-12-01T10:57:23Z</time>
      </trkpt>
      <trkpt lat="44.71306" lon="5.24656">
        <ele>488</ele>
        <time>2022-12-01T10:57:23Z</time>
      </trkpt>
      <trkpt lat="44.71295" lon="5.24663">
        <ele>486</ele>
        <time>2022-12-01T10:57:23Z</time>
      </trkpt>
      <trkpt lat="44.71286" lon="5.24664">
        <ele>484</ele>
        <time>2022-12-01T10:57:23Z</time>
      </trkpt>
      <trkpt lat="44.71277" lon="5.2466">
        <ele>483</ele>
        <time>2022-12-01T10:57:23Z</time>
      </trkpt>
      <trkpt lat="44.71227" lon="5.24618">
        <ele>482</ele>
        <time>2022-12-01T10:57:23Z</time>
      </trkpt>
      <trkpt lat="44.71218" lon="5.24615">
        <ele>480</ele>
        <time>2022-12-01T10:57:23Z</time>
      </trkpt>
      <trkpt lat="44.71196" lon="5.24614">
        <ele>479</ele>
        <time>2022-12-01T10:57:23Z</time>
      </trkpt>
      <trkpt lat="44.7119" lon="5.24622">
        <ele>477</ele>
        <time>2022-12-01T10:57:23Z</time>
      </trkpt>
      <trkpt lat="44.71122" lon="5.24768">
        <ele>468</ele>
        <time>2022-12-01T10:57:23Z</time>
      </trkpt>
      <trkpt lat="44.71119" lon="5.24806">
        <ele>462</ele>
        <time>2022-12-01T10:57:23Z</time>
      </trkpt>
      <trkpt lat="44.71095" lon="5.24879">
        <ele>455</ele>
        <time>2022-12-01T10:57:23Z</time>
      </trkpt>
      <trkpt lat="44.71093" lon="5.24968">
        <ele>439</ele>
        <time>2022-12-01T10:57:23Z</time>
        <extensions>
          <visugpx:TrkExtension xmlns:visugpx="https://www.visugpx.com/editgpx/">
            <visugpx:node>1</visugpx:node>
            </visugpx:TrkExtension>
        </extensions>
      </trkpt>
    </trkseg>
  </trk>
</gpx>